{"data":{"norad_id":60361,"intl_designator":"2024-138G","name":"STARLINK-32227","alt_names":[],"object_type":"PAYLOAD","status":"ACTIVE","operator":null,"country":"US","launch_date":"2024-08-04","launch_site_code":"AFWTR","launch_vehicle":null,"mission":null,"orbit_class":"UNKNOWN","rcs_meters":null,"size_class":null,"mass_kg":null,"dimensions":null,"purposes":["comms"],"wikipedia_slug":null,"has_3d_model":false,"image_url":null,"decayed_at":null,"tle_current":{"epoch":"2026-05-25T04:06:50.224032Z","epoch_age_seconds":53606,"freshness":"FRESH","line1":"1 60361U 24138G   26145.17141463  .00000327  00000+0  23171-4 0  9998","line2":"2 60361  53.1616 314.6042 0001136  90.0838 270.0293 15.30193098102341","mean_motion":15.30193098,"eccentricity":0.0001136,"inclination_deg":53.1616,"raan_deg":314.6042,"arg_perigee_deg":90.0838,"mean_anomaly_deg":270.0293,"bstar":2.3171e-5,"rev_number":10234,"period_min":94.105770172543,"perigee_km":474.45713448851,"apogee_km":476.01422076087,"semimajor_km":6853.3726776247,"source":"CELESTRAK","updated_at":"2026-05-25T13:38:19.238829Z"}}}